Regional Weather Roundup
Issued by NWS

Home | Current Version | Previous Version | Graphics & Text | Print | Product List | Glossary On
Versions: 1 2 3 4 5 6 7 8 9 10 11 12 13 14 15 16 17 18 19 20 21 22 23 24 25 26 27
000
ASUS43 KDMX 210907
RWRIA

WEATHER ROUNDUP FOR IOWA
NATIONAL WEATHER SERVICE DES MOINES IA
400 AM CDT MON APR 21 2014

NOTE: "FAIR" INDICATES FEW OR NO CLOUDS BELOW 12,000 FEET WITH NO
SIGNIFICANT WEATHER AND/OR OBSTRUCTIONS TO VISIBILITY.

* - THESE STATIONS ARE NOT NWS STATIONS...THUS NOT UNDER NWS
QUALITY CONTROL.  THEY ALSO DO NOT REPORT WEATHER SUCH
AS PRECIPITATION OR FOG.

IAZ001>003-012>014-020>022-031>034-043>046-211000-
   NORTHWEST IOWA

CITY           SKY/WX    TMP DP  RH WIND       PRES   REMARKS
CARROLL *      CLOUDY    61  57  88 SW12      29.93F
CHEROKEE *     MOCLDY    61  57  88 S9        29.89F
DENISON *      CLOUDY    61  57  88 SW6       29.93S
LE MARS *      PTCLDY    59  55  88 S5        29.91R
ORANGE CITY *  PTCLDY    61  54  77 SW9       29.91R
SHELDON *      PTCLDY    57  54  88 SW10      29.90R
SIOUX CITY     CLOUDY    60  55  83 S5        29.91R
SPENCER        MOCLDY    59  55  87 SE9       29.92R
STORM LAKE *   CLOUDY    59  57  94 S12       29.92F
$$

IAZ055>058-069>071-079>083-090>094-211000-
   SOUTHWEST IOWA

CITY           SKY/WX    TMP DP  RH WIND       PRES   REMARKS
ATLANTIC *     CLOUDY    57  55  94 CALM      29.94F
AUDUBON *      LGT RAIN  61  54  77 SW3       29.96S
CLARINDA *     PTCLDY    57  55  94 SW3       29.96S
COUNCIL BLFS * CLOUDY    59  59 100 CALM      29.94S
CRESTON *      PTCLDY    59  55  88 SW7       29.96F
HARLAN  *      CLOUDY    59  57  94 SW3       29.98S
LAMONI         CLOUDY    63  55  75 S8        29.97S
RED OAK *      CLOUDY    57  55  94 CALM      29.94F
SHENANDOAH *   MOCLDY    59  55  88 S6        29.95F
$$

IAZ047>049-059>061-072>074-084-211000-
   CENTRAL IOWA

CITY           SKY/WX    TMP DP  RH WIND       PRES   REMARKS
AMES           CLOUDY    57  53  86 CALM      29.95S
ANKENY *       MOCLDY    59  57  94 CALM      29.95F
CHARITON *     LGT RAIN  63  59  88 SW12      29.97R
DES MOINES     CLOUDY    63  54  72 W3        29.95F
GRINNELL*      CLOUDY    59  54  82 W3        29.95S
KNOXVILLE *    CLOUDY    63  54  72 VRB6      29.96R
MARSHALLTOWN   MOCLDY    56  51  84 N5        29.94R
NEWTON *       CLOUDY    61  52  72 SW5       29.95F
PELLA *        HVY RAIN  61  57  88 SW6       29.97R
PERRY *          N/A     59  52  77 S3        29.94F
$$

IAZ004>006-015-016-023>025-035-036-211000-
   NORTH CENTRAL IOWA

CITY           SKY/WX    TMP DP  RH WIND       PRES   REMARKS
ALGONA *       LGT RAIN  59  57  94 W17       29.94S
CLARION *      MOCLDY    57  57 100 SE8       29.94F
ESTHERVILLE    CLOUDY    58  55  90 S13       29.91R
FORT DODGE *   CLOUDY    59  54  82 CALM      29.96S
MASON CITY     CLOUDY    57  56  96 SE5       29.94S
FOREST CITY *  CLOUDY    59  57  94 CALM      29.92R
IOWA FALLS *     N/A     57  54  88 S3        29.95F
$$

IAZ007>011-017>019-026>030-037>042-050>054-066-211000-
   NORTHEAST IOWA

CITY           SKY/WX    TMP DP  RH WIND       PRES   REMARKS
CEDAR RAPIDS   CLOUDY    60  49  66 CALM      29.94F
CHARLES CITY * MOCLDY    55  54  94 S3        29.94S
CLINTON *      PTCLDY    59  43  55 S6        30.00F
DECORAH *      PTCLDY    55  55 100 CALM      29.93S FOG
DUBUQUE        CLOUDY    57  49  74 S5        29.96S
MONTICELLO *   CLOUDY    55  52  88 CALM      29.95S
OELWEIN *      CLOUDY   N/A N/A N/A SE3       29.94S
WATERLOO       MOCLDY    55  55 100 MISG      29.94S
$$

IAZ064-065-067-068-078-211000-
   EAST CENTRAL IOWA

CITY           SKY/WX    TMP DP  RH WIND       PRES   REMARKS
DAVENPORT      PTCLDY    58  43  57 S8        29.97F
IOWA CITY      CLOUDY    56  49  77 CALM      29.95F
MT. PLEASANT * CLOUDY    61  50  67 S8        29.96S
MUSCATINE *    CLEAR     55  50  82 E3        29.95F
QUAD CITIES    PTCLDY    60  43  53 CALM      29.95F
$$

IAZ062-063-075>077-085>089-095>099-211000-
   SOUTHEAST IOWA

CITY           SKY/WX    TMP DP  RH WIND       PRES   REMARKS
BURLINGTON     CLOUDY    60  48  64 S5        29.96F
FAIRFIELD *    CLOUDY    64  54  68 W8        29.95F
FORT MADISON * CLEAR     63  52  67 S6        29.97F
KEOKUK *       CLEAR     63  52  67 SW6       29.97S
OSKALOOSA *    LGT RAIN  61  55  82 W3        29.96S
CENTERVILLE *  MOCLDY    59  57  94 SW6       29.98F
OTTUMWA        LGT RAIN  63  55  75 W10       29.95S
WASHINGTON *   MOCLDY    63  50  63 W5        29.94F
$$

ABBREVIATIONS USED IN REMARKS
   TC - TEMPERATURES IN CELSIUS
  WCI - WIND CHILL INDEX
   HX - HEAT INDEX
  VSB - VISIBILITY
$$




USA.gov is the U.S. government's official web portal to all federal, state and local government web resources and services.